Location: Sungai Liu
(2.3667°N, 113.8667°E)
Time: 13:40:11
(UTC+00:00)

Cosmos 2058 - Pass Details

Date: 20 May 2022
Orbit: 560 x 580 km, 82.5° (Epoch: 06 July)

Event Time Altitude Azimuth Distance (km) Brightness Sun altitude
Rises 21:38:10 0° 186° (S) 2,742 6.1 -9.2°
Reaches altitude 10° 21:40:20 10° 188° (S) 1,845 5.2 -8.7°
Maximum altitude 21:44:23 77° 273° (W) 576 2.8 -7.8°
Drops below altitude 10° 21:48:26 10° 0° (N) 1,841 5.8 -6.8°
Sets 21:50:36 0° 2° (N) 2,736 6.7 -6.3°
